Time,TemperatureF,DewpointF,PressureIn,WindDirection,WindDirectionDegrees,WindSpeedMPH,WindSpeedGustMPH,Humidity,HourlyPrecipIn,Conditions,Clouds,dailyrainin,SoftwareType,DateUTC
2013-03-09 00:03:00,31.0,-99.9,-100.00,SE,126,1.0,3.0,-999,-99.99,,,-99.99,,2013-03-09 05:03:00,
2013-03-09 00:12:00,31.0,-99.9,-100.00,SE,126,1.0,3.0,-999,-99.99,,,-99.99,,2013-03-09 05:12:00,
2013-03-09 00:22:00,30.0,-99.9,-100.00,ENE,61,1.0,2.0,-999,-99.99,,,-99.99,,2013-03-09 05:22:00,
2013-03-09 00:32:00,30.0,-99.9,-100.00,ENE,61,1.0,2.0,-999,-99.99,,,-99.99,,2013-03-09 05:32:00,
2013-03-09 00:43:00,30.0,-99.9,-100.00,ENE,61,1.0,2.0,-999,-99.99,,,-99.99,,2013-03-09 05:43:00,
2013-03-09 00:53:00,29.0,-99.9,-100.00,East,94,1.0,3.0,-999,-99.99,,,-99.99,,2013-03-09 05:53:00,
2013-03-09 01:02:00,29.0,-99.9,-100.00,East,94,1.0,3.0,-999,-99.99,,,-99.99,,2013-03-09 06:02:00,
2013-03-09 01:11:00,29.0,-99.9,-100.00,East,94,1.0,3.0,-999,-99.99,,,-99.99,,2013-03-09 06:11:00,
2013-03-09 01:22:00,29.0,-99.9,-100.00,NE,55,0.0,4.0,-999,-99.99,,,-99.99,,2013-03-09 06:22:00,
2013-03-09 01:32:00,29.0,-99.9,-100.00,NE,55,0.0,4.0,-999,-99.99,,,-99.99,,2013-03-09 06:32:00,
2013-03-09 01:42:00,29.0,-99.9,-100.00,NE,55,0.0,4.0,-999,-99.99,,,-99.99,,2013-03-09 06:42:00,
2013-03-09 01:52:00,29.0,-99.9,-100.00,ESE,123,1.0,4.0,-999,-99.99,,,-99.99,,2013-03-09 06:52:00,
2013-03-09 02:01:00,29.0,-99.9,-100.00,ESE,123,1.0,4.0,-999,-99.99,,,-99.99,,2013-03-09 07:01:00,
2013-03-09 02:11:00,29.0,-99.9,-100.00,ESE,123,1.0,4.0,-999,-99.99,,,-99.99,,2013-03-09 07:11:00,
2013-03-09 02:22:00,30.0,-99.9,-100.00,SSE,155,2.0,7.0,-999,-99.99,,,-99.99,,2013-03-09 07:22:00,
2013-03-09 02:32:00,29.0,-99.9,-100.00,ESE,123,1.0,4.0,-999,-99.99,,,-99.99,,2013-03-09 07:32:00,
2013-03-09 02:42:00,29.0,-99.9,-100.00,ESE,123,1.0,4.0,-999,-99.99,,,-99.99,,2013-03-09 07:42:00,
2013-03-09 02:52:00,29.0,-99.9,-100.00,ESE,123,1.0,4.0,-999,-99.99,,,-99.99,,2013-03-09 07:52:00,
2013-03-09 03:01:00,29.0,-99.9,-100.00,ESE,123,1.0,4.0,-999,-99.99,,,-99.99,,2013-03-09 08:01:00,
2013-03-09 03:11:00,30.0,-99.9,-100.00,ESE,103,2.0,7.0,-999,-99.99,,,-99.99,,2013-03-09 08:11:00,
2013-03-09 03:22:00,30.0,-99.9,-100.00,SE,130,3.0,5.0,-999,-99.99,,,-99.99,,2013-03-09 08:22:00,
2013-03-09 03:32:00,30.0,-99.9,-100.00,ESE,103,2.0,7.0,-999,-99.99,,,-99.99,,2013-03-09 08:32:00,
2013-03-09 03:42:00,30.0,-99.9,-100.00,ESE,103,2.0,7.0,-999,-99.99,,,-99.99,,2013-03-09 08:42:00,
2013-03-09 03:52:00,30.0,-99.9,-100.00,ESE,103,2.0,7.0,-999,-99.99,,,-99.99,,2013-03-09 08:52:00,
2013-03-09 04:02:00,30.0,-99.9,-100.00,ESE,103,2.0,7.0,-999,-99.99,,,-99.99,,2013-03-09 09:02:00,
2013-03-09 04:12:00,30.0,-99.9,-100.00,SSE,160,3.0,8.0,-999,-99.99,,,-99.99,,2013-03-09 09:12:00,
2013-03-09 04:22:00,30.0,-99.9,-100.00,East,90,1.0,5.0,-999,-99.99,,,-99.99,,2013-03-09 09:22:00,
2013-03-09 04:32:00,30.0,-99.9,-100.00,SSE,160,3.0,8.0,-999,-99.99,,,-99.99,,2013-03-09 09:32:00,
2013-03-09 04:42:00,30.0,-99.9,-100.00,SSE,160,3.0,8.0,-999,-99.99,,,-99.99,,2013-03-09 09:42:00,
2013-03-09 04:52:00,30.0,-99.9,-100.00,SSE,160,3.0,8.0,-999,-99.99,,,-99.99,,2013-03-09 09:52:00,
2013-03-09 05:01:00,31.0,-99.9,-100.00,SSE,155,2.0,10.0,-999,-99.99,,,-99.99,,2013-03-09 10:01:00,
2013-03-09 05:11:00,31.0,-99.9,-100.00,SSE,155,2.0,10.0,-999,-99.99,,,-99.99,,2013-03-09 10:11:00,
2013-03-09 05:22:00,31.0,-99.9,-100.00,SE,139,4.0,8.0,-999,-99.99,,,-99.99,,2013-03-09 10:22:00,
2013-03-09 05:32:00,31.0,-99.9,-100.00,SE,139,4.0,8.0,-999,-99.99,,,-99.99,,2013-03-09 10:32:00,
2013-03-09 05:42:00,31.0,-99.9,-100.00,SSE,155,2.0,10.0,-999,-99.99,,,-99.99,,2013-03-09 10:42:00,
2013-03-09 05:52:00,31.0,-99.9,-100.00,SSE,155,2.0,10.0,-999,-99.99,,,-99.99,,2013-03-09 10:52:00,
2013-03-09 06:01:00,31.0,-99.9,-100.00,SSE,157,2.0,11.0,-999,-99.99,,,-99.99,,2013-03-09 11:01:00,
2013-03-09 06:11:00,31.0,-99.9,-100.00,SSE,157,2.0,11.0,-999,-99.99,,,-99.99,,2013-03-09 11:11:00,
2013-03-09 06:22:00,32.0,-99.9,-100.00,ESE,104,1.0,8.0,-999,-99.99,,,-99.99,,2013-03-09 11:22:00,
2013-03-09 06:32:00,32.0,-99.9,-100.00,ESE,104,1.0,8.0,-999,-99.99,,,-99.99,,2013-03-09 11:32:00,
2013-03-09 06:42:00,31.0,-99.9,-100.00,SSE,157,2.0,11.0,-999,-99.99,,,-99.99,,2013-03-09 11:42:00,
2013-03-09 06:52:00,31.0,-99.9,-100.00,SSE,157,2.0,11.0,-999,-99.99,,,-99.99,,2013-03-09 11:52:00,
2013-03-09 07:02:00,31.0,-99.9,-100.00,SSE,157,2.0,11.0,-999,-99.99,,,-99.99,,2013-03-09 12:02:00,
2013-03-09 07:12:00,32.0,-99.9,-100.00,SSE,164,4.0,12.0,-999,-99.99,,,-99.99,,2013-03-09 12:12:00,
2013-03-09 07:22:00,32.0,-99.9,-100.00,SSE,156,2.0,8.0,-999,-99.99,,,-99.99,,2013-03-09 12:22:00,
2013-03-09 07:32:00,32.0,-99.9,-100.00,SSE,164,4.0,12.0,-999,-99.99,,,-99.99,,2013-03-09 12:32:00,
2013-03-09 07:42:00,32.0,-99.9,-100.00,SSE,164,4.0,12.0,-999,-99.99,,,-99.99,,2013-03-09 12:42:00,
2013-03-09 07:53:00,32.0,-99.9,-100.00,SSE,164,4.0,12.0,-999,-99.99,,,-99.99,,2013-03-09 12:53:00,
2013-03-09 08:02:00,33.0,-99.9,-100.00,SSE,152,5.0,9.0,-999,-99.99,,,-99.99,,2013-03-09 13:02:00,
2013-03-09 08:11:00,33.0,-99.9,-100.00,SSE,152,5.0,9.0,-999,-99.99,,,-99.99,,2013-03-09 13:11:00,
2013-03-09 08:22:00,33.0,-99.9,-100.00,SSE,162,4.0,10.0,-999,-99.99,,,-99.99,,2013-03-09 13:22:00,
2013-03-09 08:32:00,33.0,-99.9,-100.00,SSE,152,5.0,9.0,-999,-99.99,,,-99.99,,2013-03-09 13:32:00,
2013-03-09 08:42:00,33.0,-99.9,-100.00,SSE,152,5.0,9.0,-999,-99.99,,,-99.99,,2013-03-09 13:42:00,
2013-03-09 08:52:00,34.0,-99.9,-100.00,SE,138,2.0,11.0,-999,-99.99,,,-99.99,,2013-03-09 13:52:00,
2013-03-09 09:02:00,34.0,-99.9,-100.00,SE,138,2.0,11.0,-999,-99.99,,,-99.99,,2013-03-09 14:02:00,
2013-03-09 09:11:00,34.0,-99.9,-100.00,SE,138,2.0,11.0,-999,-99.99,,,-99.99,,2013-03-09 14:11:00,
2013-03-09 09:22:00,34.0,-99.9,-100.00,SE,136,3.0,7.0,-999,-99.99,,,-99.99,,2013-03-09 14:22:00,
2013-03-09 09:32:00,34.0,-99.9,-100.00,SE,136,3.0,7.0,-999,-99.99,,,-99.99,,2013-03-09 14:32:00,
2013-03-09 09:42:00,34.0,-99.9,-100.00,SE,138,2.0,11.0,-999,-99.99,,,-99.99,,2013-03-09 14:42:00,
2013-03-09 09:52:00,34.0,-99.9,-100.00,SE,138,2.0,11.0,-999,-99.99,,,-99.99,,2013-03-09 14:52:00,
2013-03-09 10:02:00,35.0,-99.9,-100.00,ESE,122,2.0,9.0,-999,-99.99,,,-99.99,,2013-03-09 15:02:00,
2013-03-09 10:12:00,35.0,-99.9,-100.00,ESE,122,2.0,9.0,-999,-99.99,,,-99.99,,2013-03-09 15:12:00,
2013-03-09 10:22:00,36.0,-99.9,-100.00,SE,141,2.0,7.0,-999,-99.99,,,-99.99,,2013-03-09 15:22:00,
2013-03-09 10:32:00,36.0,-99.9,-100.00,SE,141,2.0,7.0,-999,-99.99,,,-99.99,,2013-03-09 15:32:00,
2013-03-09 10:42:00,35.0,-99.9,-100.00,ESE,122,2.0,9.0,-999,-99.99,,,-99.99,,2013-03-09 15:42:00,
2013-03-09 10:52:00,35.0,-99.9,-100.00,ESE,122,2.0,9.0,-999,-99.99,,,-99.99,,2013-03-09 15:52:00,
2013-03-09 11:02:00,35.0,-99.9,-100.00,ESE,122,2.0,9.0,-999,-99.99,,,-99.99,,2013-03-09 16:02:00,
2013-03-09 11:12:00,37.0,-99.9,-100.00,SSE,151,5.0,9.0,-999,-99.99,,,-99.99,,2013-03-09 16:12:00,
2013-03-09 11:22:00,37.0,-99.9,-100.00,SE,144,4.0,8.0,-999,-99.99,,,-99.99,,2013-03-09 16:22:00,
2013-03-09 11:32:00,37.0,-99.9,-100.00,SSE,151,5.0,9.0,-999,-99.99,,,-99.99,,2013-03-09 16:32:00,
2013-03-09 11:42:00,37.0,-99.9,-100.00,SSE,151,5.0,9.0,-999,-99.99,,,-99.99,,2013-03-09 16:42:00,
2013-03-09 11:52:00,37.0,-99.9,-100.00,SSE,151,5.0,9.0,-999,-99.99,,,-99.99,,2013-03-09 16:52:00,
2013-03-09 12:01:00,38.0,-99.9,-100.00,ESE,107,5.0,12.0,-999,-99.99,,,-99.99,,2013-03-09 17:01:00,
2013-03-09 12:11:00,38.0,-99.9,-100.00,ESE,107,5.0,12.0,-999,-99.99,,,-99.99,,2013-03-09 17:11:00,
2013-03-09 12:22:00,40.0,-99.9,-100.00,SE,139,3.0,9.0,-999,-99.99,,,-99.99,,2013-03-09 17:22:00,
2013-03-09 12:32:00,40.0,-99.9,-100.00,SE,139,3.0,9.0,-999,-99.99,,,-99.99,,2013-03-09 17:32:00,
2013-03-09 12:42:00,40.0,-99.9,-100.00,SE,139,3.0,9.0,-999,-99.99,,,-99.99,,2013-03-09 17:42:00,
2013-03-09 12:52:00,38.0,-99.9,-100.00,ESE,107,5.0,12.0,-999,-99.99,,,-99.99,,2013-03-09 17:52:00,
2013-03-09 13:02:00,40.0,-99.9,-100.00,East,88,3.0,12.0,-999,-99.99,,,-99.99,,2013-03-09 18:02:00,
2013-03-09 13:11:00,40.0,-99.9,-100.00,East,88,3.0,12.0,-999,-99.99,,,-99.99,,2013-03-09 18:11:00,
2013-03-09 13:22:00,41.0,-99.9,-100.00,East,87,4.0,10.0,-999,-99.99,,,-99.99,,2013-03-09 18:22:00,
2013-03-09 13:32:00,40.0,-99.9,-100.00,East,88,3.0,12.0,-999,-99.99,,,-99.99,,2013-03-09 18:32:00,
2013-03-09 13:42:00,40.0,-99.9,-100.00,East,88,3.0,12.0,-999,-99.99,,,-99.99,,2013-03-09 18:42:00,
2013-03-09 13:52:00,40.0,-99.9,-100.00,East,88,3.0,12.0,-999,-99.99,,,-99.99,,2013-03-09 18:52:00,
2013-03-09 14:02:00,41.0,-99.9,-100.00,SSE,166,6.0,13.0,-999,-99.99,,,-99.99,,2013-03-09 19:02:00,
2013-03-09 14:12:00,41.0,-99.9,-100.00,SSE,166,6.0,13.0,-999,-99.99,,,-99.99,,2013-03-09 19:12:00,
2013-03-09 14:22:00,43.0,-99.9,-100.00,SSE,163,7.0,11.0,-999,-99.99,,,-99.99,,2013-03-09 19:22:00,
2013-03-09 14:32:00,43.0,-99.9,-100.00,SSE,163,7.0,11.0,-999,-99.99,,,-99.99,,2013-03-09 19:32:00,
2013-03-09 14:42:00,41.0,-99.9,-100.00,SSE,166,6.0,13.0,-999,-99.99,,,-99.99,,2013-03-09 19:42:00,
2013-03-09 14:52:00,42.0,-99.9,-100.00,SSE,151,6.0,15.0,-999,-99.99,,,-99.99,,2013-03-09 19:52:00,
2013-03-09 15:02:00,42.0,-99.9,-100.00,SSE,151,6.0,15.0,-999,-99.99,,,-99.99,,2013-03-09 20:02:00,
2013-03-09 15:12:00,42.0,-99.9,-100.00,SSE,151,6.0,15.0,-999,-99.99,,,-99.99,,2013-03-09 20:12:00,
2013-03-09 15:22:00,43.0,-99.9,-100.00,SSE,166,5.0,9.0,-999,-99.99,,,-99.99,,2013-03-09 20:22:00,
2013-03-09 15:32:00,43.0,-99.9,-100.00,SSE,166,5.0,9.0,-999,-99.99,,,-99.99,,2013-03-09 20:32:00,
2013-03-09 15:42:00,43.0,-99.9,-100.00,SSE,166,5.0,9.0,-999,-99.99,,,-99.99,,2013-03-09 20:42:00,
2013-03-09 15:53:00,42.0,-99.9,-100.00,SSE,151,6.0,15.0,-999,-99.99,,,-99.99,,2013-03-09 20:53:00,
2013-03-09 16:02:00,42.0,-99.9,-100.00,SSE,151,6.0,15.0,-999,-99.99,,,-99.99,,2013-03-09 21:02:00,
2013-03-09 16:12:00,43.0,-99.9,-100.00,SSE,157,3.0,17.0,-999,-99.99,,,-99.99,,2013-03-09 21:12:00,
2013-03-09 16:22:00,42.0,-99.9,-100.00,SE,135,6.0,16.0,-999,-99.99,,,-99.99,,2013-03-09 21:22:00,
2013-03-09 16:32:00,42.0,-99.9,-100.00,SE,135,6.0,16.0,-999,-99.99,,,-99.99,,2013-03-09 21:32:00,
2013-03-09 16:42:00,43.0,-99.9,-100.00,SSE,157,3.0,17.0,-999,-99.99,,,-99.99,,2013-03-09 21:42:00,
2013-03-09 16:52:00,43.0,-99.9,-100.00,SSE,157,3.0,17.0,-999,-99.99,,,-99.99,,2013-03-09 21:52:00,
2013-03-09 17:01:00,42.0,-99.9,-100.00,SSE,158,5.0,16.0,-999,-99.99,,,-99.99,,2013-03-09 22:01:00,
2013-03-09 17:11:00,42.0,-99.9,-100.00,SSE,158,5.0,16.0,-999,-99.99,,,-99.99,,2013-03-09 22:11:00,
2013-03-09 17:22:00,42.0,-99.9,-100.00,SE,130,3.0,10.0,-999,-99.99,,,-99.99,,2013-03-09 22:22:00,
2013-03-09 17:32:00,42.0,-99.9,-100.00,SSE,158,5.0,16.0,-999,-99.99,,,-99.99,,2013-03-09 22:32:00,
2013-03-09 17:42:00,42.0,-99.9,-100.00,SSE,158,5.0,16.0,-999,-99.99,,,-99.99,,2013-03-09 22:42:00,
2013-03-09 17:52:00,42.0,-99.9,-100.00,SSE,158,5.0,16.0,-999,-99.99,,,-99.99,,2013-03-09 22:52:00,
2013-03-09 18:02:00,42.0,-99.9,-100.00,SSE,158,5.0,16.0,-999,-99.99,,,-99.99,,2013-03-09 23:02:00,
2013-03-09 18:11:00,42.0,-99.9,-100.00,SE,129,5.0,14.0,-999,-99.99,,,-99.99,,2013-03-09 23:11:00,
2013-03-09 18:22:00,42.0,-99.9,-100.00,ESE,122,5.0,13.0,-999,-99.99,,,-99.99,,2013-03-09 23:22:00,
2013-03-09 18:32:00,42.0,-99.9,-100.00,ESE,122,5.0,13.0,-999,-99.99,,,-99.99,,2013-03-09 23:32:00,
2013-03-09 18:42:00,42.0,-99.9,-100.00,SE,129,5.0,14.0,-999,-99.99,,,-99.99,,2013-03-09 23:42:00,
2013-03-09 18:52:00,42.0,-99.9,-100.00,SE,129,5.0,14.0,-999,-99.99,,,-99.99,,2013-03-09 23:52:00,
2013-03-09 19:02:00,41.0,-99.9,-100.00,SE,135,2.0,17.0,-999,-99.99,,,-99.99,,2013-03-10 00:02:00,
2013-03-09 19:12:00,41.0,-99.9,-100.00,SE,135,2.0,17.0,-999,-99.99,,,-99.99,,2013-03-10 00:12:00,
2013-03-09 19:22:00,41.0,-99.9,-100.00,ESE,106,2.0,11.0,-999,-99.99,,,-99.99,,2013-03-10 00:22:00,
2013-03-09 19:32:00,41.0,-99.9,-100.00,ESE,106,2.0,11.0,-999,-99.99,,,-99.99,,2013-03-10 00:32:00,
2013-03-09 19:43:00,41.0,-99.9,-100.00,SE,135,2.0,17.0,-999,-99.99,,,-99.99,,2013-03-10 00:43:00,
2013-03-09 19:52:00,41.0,-99.9,-100.00,ESE,104,5.0,16.0,-999,-99.99,,,-99.99,,2013-03-10 00:52:00,
2013-03-09 20:02:00,41.0,-99.9,-100.00,ESE,104,5.0,16.0,-999,-99.99,,,-99.99,,2013-03-10 01:02:00,
2013-03-09 20:11:00,41.0,-99.9,-100.00,ESE,104,5.0,16.0,-999,-99.99,,,-99.99,,2013-03-10 01:11:00,
2013-03-09 20:22:00,41.0,-99.9,-100.00,SSE,157,2.0,11.0,-999,-99.99,,,-99.99,,2013-03-10 01:22:00,
2013-03-09 20:32:00,41.0,-99.9,-100.00,SSE,157,2.0,11.0,-999,-99.99,,,-99.99,,2013-03-10 01:32:00,
2013-03-09 20:42:00,41.0,-99.9,-100.00,SSE,157,2.0,11.0,-999,-99.99,,,-99.99,,2013-03-10 01:42:00,
2013-03-09 20:52:00,41.0,-99.9,-100.00,ESE,104,5.0,16.0,-999,-99.99,,,-99.99,,2013-03-10 01:52:00,
2013-03-09 21:01:00,41.0,-99.9,-100.00,SSE,153,2.0,15.0,-999,-99.99,,,-99.99,,2013-03-10 02:01:00,
2013-03-09 21:11:00,41.0,-99.9,-100.00,SSE,153,2.0,15.0,-999,-99.99,,,-99.99,,2013-03-10 02:11:00,
2013-03-09 21:22:00,42.0,-99.9,-100.00,SE,128,4.0,13.0,-999,-99.99,,,-99.99,,2013-03-10 02:22:00,
2013-03-09 21:32:00,42.0,-99.9,-100.00,SE,128,4.0,13.0,-999,-99.99,,,-99.99,,2013-03-10 02:32:00,
2013-03-09 21:42:00,42.0,-99.9,-100.00,SE,128,4.0,13.0,-999,-99.99,,,-99.99,,2013-03-10 02:42:00,
2013-03-09 21:52:00,42.0,-99.9,-100.00,SE,128,4.0,13.0,-999,-99.99,,,-99.99,,2013-03-10 02:52:00,
2013-03-09 22:00:00,43.0,-99.9,-100.00,SSE,148,4.0,11.0,-999,-99.99,,,-99.99,,2013-03-10 03:00:00,
2013-03-09 22:02:00,42.0,-99.9,-100.00,SE,138,6.0,13.0,-999,-99.99,,,-99.99,,2013-03-10 03:02:00,
2013-03-09 22:12:00,42.0,-99.9,-100.00,SE,138,6.0,13.0,-999,-99.99,,,-99.99,,2013-03-10 03:12:00,
2013-03-09 22:23:00,43.0,-99.9,-100.00,SSE,148,4.0,11.0,-999,-99.99,,,-99.99,,2013-03-10 03:23:00,
2013-03-09 22:32:00,43.0,-99.9,-100.00,SSE,148,4.0,11.0,-999,-99.99,,,-99.99,,2013-03-10 03:32:00,
2013-03-09 22:42:00,43.0,-99.9,-100.00,SSE,148,4.0,11.0,-999,-99.99,,,-99.99,,2013-03-10 03:42:00,
2013-03-09 22:52:00,43.0,-99.9,-100.00,SSE,148,4.0,11.0,-999,-99.99,,,-99.99,,2013-03-10 03:52:00,
2013-03-09 23:22:00,43.0,-99.9,-100.00,SE,129,4.0,11.0,-999,-99.99,,,-99.99,,2013-03-10 04:22:00,
2013-03-09 23:32:00,43.0,-99.9,-100.00,SE,129,4.0,11.0,-999,-99.99,,,-99.99,,2013-03-10 04:32:00,
2013-03-09 23:42:00,43.0,-99.9,-100.00,ESE,115,6.0,17.0,-999,-99.99,,,-99.99,,2013-03-10 04:42:00,
2013-03-09 23:52:00,43.0,-99.9,-100.00,ESE,115,6.0,17.0,-999,-99.99,,,-99.99,,2013-03-10 04:52:00,